SCP
-0 -0 -0 -0 -0 -0 -0 0 0 0 0 0 0 0 0 0 0 0 -0 -0 -0 0 0 0 0 0 0 0 0 0 0 -0
-0 -0 -0 -0 -0 -0 -0 0 0 0 0 0 0 0 0 0 0 0 -0 -0 -0 -0 0 0 0 0 0 0 0 0 0 -0
-0 -0 -0 -0 -0 -0 -0 0 0 -0 0 0 0 0 0 0 0 -0 -0 -0 -0 -0 -0 0 0 0 0 0 0 0 0 -0
-0 -0 -0 -0 -0 -0 -0 -0 -0 -0 0 0 0 -0 -0 -0 0 0 -0 -0 0 0 -0 -0 -0 0 0 0 0 0 0 0
-0 -0 -0 -0 -0 -0 -0 -0 -0 -0 -0 0 0 -0 0 -0 -0 0 -0 -0 0 0 0 0 0 0 0 0 0 0 0 0
-0 -0 -0 -0 -0 -0 -0 -0 -0 -0 -0 0 0 -0 0 0 0 0 0 0 0 0 0 0 0 0 0 0 -0 0 0 0
-0 -0 -0 -0 -0 -0 -0 -0 -0 -0 -0 -0 0 0 0 -0 0 0 0 0 0 0 0 0 -0 0 0 0 0 0 0 0
-0 -0 -0 -0 -0 -0 -0 -0 -0 -0 0 0 -0 -0 0 0 0 0 0 0 0 0 0 0 0 0 0 0 0 0 0 0
-0 -0 -0 -0 -0 -0 -0 -0 -0 -0 0 0 0 0 0 0 0 0 0 0 0 0 0 0 0 0 0 0 0 0 0 0
-0 -0 -0 -0 -0 -0 -0 -0 -0 -0 -0 -0 0 0 0 0 0 0 0 0 0 0 0 0 0 0 0 0 0 0 0 0
0 -0 -0 -0 -0 -0 -0 0 -0 -0 -0 -0 -0 -0 0 -0 -0 -0 0 0 0 0 0 0 0 0 0 0 0 0 -0 -0
-0 -0 -0 -0 -0 -0 0 -0 -0 -0 -0 -0 -0 -0 -0 -0 0 0 0 0 0 0 0 0 0 0 0 0 0 -0 -0 -0
0 -0 -0 -0 -0 -0 -0 0 -0 -0 -0 -0 -0 -0 -0 -0 0 0 0 0 0 0 0 0 0 0 0 0 0 0 -0 -0
0 0 0 -0 -0 -0 -0 -0 -0 -0 -0 -0 -0 -0 -0 -0 0 -0 0 0 0 0 0 0 -0 -0 -0 0 -0 0 0 -0
0 0 0 0 -0 -0 -0 -0 -0 -0 -0 -0 -0 -0 -0 -0 0 -0 -0 -0 -0 -0 -0 0 0 0 0 -0 -0 -0 -0 -0
0 0 0 0 0 -0 -0 -0 -0 -0 -0 0 0 0 0 -0 -0 0 -0 -0 -0 -0 -0 -0 -0 0 -0 -0 -0 -0 0 -0
0 0 0 0 0 0 0 -0 -0 -0 -0 0 0 0 0 -0 -0 -0 -0 -0 -0 -0 0 0 0 0 0 0 -0 0 0 0
0 0 -0 -0 0 0 0 0 0 0 0 0 0 0 0 0 0 -0 -0 -0 -0 -0 -0 -0 0 0 0 0 0 0 0 0
0 0 0 0 0 0 0 0 0 0 0 0 0 0 0 0 0 0 0 -0 -0 -0 -0 0 0 0 0 0 0 0 0 0
0 0 0 0 0 0 0 0 0 0 0 0 0 0 0 0 0 0 0 0 0 0 0 0 0 0 0 0 0 0 0 0
Wind_Speed_500mb
47 51 58 54 52 48 38 34 31 27 23 17 12 7 2 1 5 10 17 22 20 16 14 14 15 19 19 19 19 20 22 21
52 54 53 51 52 47 39 36 31 26 21 18 11 5 2 0 13 15 19 23 23 21 21 23 20 20 19 22 20 20 23 23
54 56 52 54 53 46 40 37 32 28 23 21 14 8 5 10 18 21 25 27 25 24 25 24 20 20 22 24 23 23 25 28
52 56 56 56 55 50 44 41 36 31 27 23 16 11 14 24 24 26 28 26 27 26 24 21 19 18 17 13 10 11 19 29
64 64 65 59 57 52 47 46 39 33 29 26 22 16 26 30 28 25 23 24 24 22 21 20 18 15 14 11 8 13 23 30
60 64 66 59 56 52 45 47 42 37 34 32 31 23 30 30 28 23 19 19 19 17 11 12 16 18 19 12 14 22 26 38
66 68 67 60 60 56 51 50 47 42 38 38 39 32 30 32 29 24 18 18 18 16 13 11 17 19 22 15 21 26 34 43
63 67 68 60 61 60 56 53 54 47 42 41 44 38 31 30 24 20 17 18 18 17 17 18 22 21 22 25 21 34 39 46
59 69 74 65 65 65 61 57 59 52 44 43 43 42 33 30 26 21 15 15 18 20 22 25 24 22 26 28 29 27 37 45
65 71 75 67 66 68 66 63 57 54 47 44 42 43 38 36 30 26 22 16 19 22 24 28 28 26 26 28 29 27 41 46
62 75 79 71 68 69 69 62 59 58 52 47 44 42 42 41 35 33 29 23 19 23 25 28 31 31 30 30 30 33 38 35
67 68 84 82 72 67 61 63 61 61 57 51 48 44 47 43 40 33 32 28 26 25 29 27 29 32 33 33 33 34 34 34
70 80 88 88 78 68 66 63 66 65 60 54 53 51 46 47 45 41 36 31 24 22 26 31 34 33 31 32 35 37 36 34
69 75 78 86 85 75 68 67 68 68 67 62 59 58 54 52 50 46 42 38 31 25 15 14 24 30 30 32 33 34 33 33
63 81 86 89 90 83 72 70 72 69 69 70 65 62 61 57 54 52 48 42 40 35 31 27 19 22 32 37 36 36 35 35
54 72 79 83 86 86 77 73 73 73 69 65 68 68 67 64 60 56 48 47 49 46 40 38 34 33 36 36 39 44 47 48
44 55 75 73 79 82 78 78 77 76 77 74 68 67 67 67 61 59 53 46 44 43 49 46 44 43 44 49 48 52 54 57
44 64 77 80 78 79 77 76 78 80 77 73 73 68 68 67 70 65 57 56 53 48 50 52 53 53 55 60 65 64 66 65
40 43 61 77 80 77 75 76 76 81 80 79 77 75 69 67 69 72 67 62 59 57 56 52 52 54 57 60 63 69 71 70
17 37 46 50 60 73 73 75 76 80 82 82 82 85 80 74 73 71 71 67 63 61 58 59 54 55 57 57 57 59 63 65
Wind_Direction_500mb
169 171 172 174 174 173 170 168 167 168 172 174 179 197 188 330 181 156 147 160 162 157 151 148 137 124 112 105 99 95 101 116
170 171 175 177 176 175 172 171 172 174 175 170 178 153 122 33 163 145 143 151 150 144 142 141 136 122 114 107 98 95 104 99
173 174 178 178 176 175 172 173 174 172 167 166 160 131 92 139 142 140 136 136 137 138 144 147 144 123 107 103 95 86 92 101
175 179 182 179 178 176 174 173 172 169 167 168 156 128 115 131 128 134 136 132 132 128 136 144 146 145 131 121 80 88 109 110
181 184 184 183 182 178 175 175 174 174 172 170 159 139 131 129 132 134 133 132 134 136 140 147 152 151 145 133 105 128 129 124
183 185 187 185 183 179 176 177 176 178 177 173 163 147 140 132 123 120 128 142 141 134 131 157 161 151 143 117 117 131 134 130
190 188 187 184 184 178 179 179 181 182 185 178 173 164 146 141 128 111 116 133 146 137 130 134 153 152 141 122 130 132 133 135
188 187 187 185 183 181 182 182 184 186 188 184 180 177 174 167 151 132 110 128 136 140 134 130 141 133 130 131 129 136 140 140
188 188 186 184 182 182 185 187 189 185 188 193 189 189 184 182 174 162 141 131 131 140 142 136 144 139 124 125 135 134 143 155
194 188 186 185 185 186 188 192 187 185 188 196 195 192 189 184 179 177 172 151 150 137 143 142 145 145 140 139 135 137 141 133
198 188 186 187 189 191 192 190 187 185 188 194 198 196 195 193 187 189 185 178 169 161 151 154 156 153 147 143 141 139 151 150
200 192 189 189 190 194 197 187 186 188 190 194 198 201 199 198 198 195 199 193 187 182 176 170 167 168 167 166 164 160 161 165
200 197 196 192 190 192 196 190 188 190 193 197 201 203 201 203 204 206 206 207 203 196 193 193 187 181 177 176 174 170 170 172
203 202 203 197 195 195 198 192 193 192 194 197 202 204 204 206 208 209 215 215 212 210 191 194 204 206 194 188 187 187 187 189
207 205 205 204 198 197 200 198 198 198 198 198 201 205 207 208 206 206 205 204 213 214 216 215 203 204 203 204 202 201 202 205
214 205 207 208 204 201 203 204 203 204 205 206 202 202 209 210 212 210 206 210 211 214 214 221 220 211 209 213 214 216 219 219
216 204 208 209 205 204 205 207 207 207 208 208 208 208 209 213 214 216 217 216 218 220 224 219 221 220 217 215 219 225 229 230
212 210 209 212 209 208 207 210 209 210 212 213 210 211 211 212 216 218 222 224 226 225 231 229 228 224 225 224 224 224 229 232
215 227 221 217 215 214 211 211 211 212 212 216 213 215 215 215 216 219 221 225 229 232 235 234 233 233 236 236 237 235 235 238
271 231 222 223 224 222 216 214 212 212 214 217 217 216 218 217 219 221 222 224 227 231 232 237 236 237 238 241 244 246 244 245
Wind_Speed_850mb
47 51 58 54 52 48 38 34 31 27 23 17 12 7 2 1 5 10 17 22 20 16 14 14 15 19 19 19 19 20 22 21
52 54 53 51 52 47 39 36 31 26 21 18 11 5 2 0 13 15 19 23 23 21 21 23 20 20 19 22 20 20 23 23
54 56 52 54 53 46 40 37 32 28 23 21 14 8 5 10 18 21 25 27 25 24 25 24 20 20 22 24 23 23 25 28
52 56 56 56 55 50 44 41 36 31 27 23 16 11 14 24 24 26 28 26 27 26 24 21 19 18 17 13 10 11 19 29
64 64 65 59 57 52 47 46 39 33 29 26 22 16 26 30 28 25 23 24 24 22 21 20 18 15 14 11 8 13 23 30
60 64 66 59 56 52 45 47 42 37 34 32 31 23 30 30 28 23 19 19 19 17 11 12 16 18 19 12 14 22 26 38
66 68 67 60 60 56 51 50 47 42 38 38 39 32 30 32 29 24 18 18 18 16 13 11 17 19 22 15 21 26 34 43
63 67 68 60 61 60 56 53 54 47 42 41 44 38 31 30 24 20 17 18 18 17 17 18 22 21 22 25 21 34 39 46
59 69 74 65 65 65 61 57 59 52 44 43 43 42 33 30 26 21 15 15 18 20 22 25 24 22 26 28 29 27 37 45
65 71 75 67 66 68 66 63 57 54 47 44 42 43 38 36 30 26 22 16 19 22 24 28 28 26 26 28 29 27 41 46
62 75 79 71 68 69 69 62 59 58 52 47 44 42 42 41 35 33 29 23 19 23 25 28 31 31 30 30 30 33 38 35
67 68 84 82 72 67 61 63 61 61 57 51 48 44 47 43 40 33 32 28 26 25 29 27 29 32 33 33 33 34 34 34
70 80 88 88 78 68 66 63 66 65 60 54 53 51 46 47 45 41 36 31 24 22 26 31 34 33 31 32 35 37 36 34
69 75 78 86 85 75 68 67 68 68 67 62 59 58 54 52 50 46 42 38 31 25 15 14 24 30 30 32 33 34 33 33
63 81 86 89 90 83 72 70 72 69 69 70 65 62 61 57 54 52 48 42 40 35 31 27 19 22 32 37 36 36 35 35
54 72 79 83 86 86 77 73 73 73 69 65 68 68 67 64 60 56 48 47 49 46 40 38 34 33 36 36 39 44 47 48
44 55 75 73 79 82 78 78 77 76 77 74 68 67 67 67 61 59 53 46 44 43 49 46 44 43 44 49 48 52 54 57
44 64 77 80 78 79 77 76 78 80 77 73 73 68 68 67 70 65 57 56 53 48 50 52 53 53 55 60 65 64 66 65
40 43 61 77 80 77 75 76 76 81 80 79 77 75 69 67 69 72 67 62 59 57 56 52 52 54 57 60 63 69 71 70
17 37 46 50 60 73 73 75 76 80 82 82 82 85 80 74 73 71 71 67 63 61 58 59 54 55 57 57 57 59 63 65
Wind_Direction_850mb
169 171 172 174 174 173 170 168 167 168 172 174 179 197 188 330 181 156 147 160 162 157 151 148 137 124 112 105 99 95 101 116
170 171 175 177 176 175 172 171 172 174 175 170 178 153 122 33 163 145 143 151 150 144 142 141 136 122 114 107 98 95 104 99
173 174 178 178 176 175 172 173 174 172 167 166 160 131 92 139 142 140 136 136 137 138 144 147 144 123 107 103 95 86 92 101
175 179 182 179 178 176 174 173 172 169 167 168 156 128 115 131 128 134 136 132 132 128 136 144 146 145 131 121 80 88 109 110
181 184 184 183 182 178 175 175 174 174 172 170 159 139 131 129 132 134 133 132 134 136 140 147 152 151 145 133 105 128 129 124
183 185 187 185 183 179 176 177 176 178 177 173 163 147 140 132 123 120 128 142 141 134 131 157 161 151 143 117 117 131 134 130
190 188 187 184 184 178 179 179 181 182 185 178 173 164 146 141 128 111 116 133 146 137 130 134 153 152 141 122 130 132 133 135
188 187 187 185 183 181 182 182 184 186 188 184 180 177 174 167 151 132 110 128 136 140 134 130 141 133 130 131 129 136 140 140
188 188 186 184 182 182 185 187 189 185 188 193 189 189 184 182 174 162 141 131 131 140 142 136 144 139 124 125 135 134 143 155
194 188 186 185 185 186 188 192 187 185 188 196 195 192 189 184 179 177 172 151 150 137 143 142 145 145 140 139 135 137 141 133
198 188 186 187 189 191 192 190 187 185 188 194 198 196 195 193 187 189 185 178 169 161 151 154 156 153 147 143 141 139 151 150
200 192 189 189 190 194 197 187 186 188 190 194 198 201 199 198 198 195 199 193 187 182 176 170 167 168 167 166 164 160 161 165
200 197 196 192 190 192 196 190 188 190 193 197 201 203 201 203 204 206 206 207 203 196 193 193 187 181 177 176 174 170 170 172
203 202 203 197 195 195 198 192 193 192 194 197 202 204 204 206 208 209 215 215 212 210 191 194 204 206 194 188 187 187 187 189
207 205 205 204 198 197 200 198 198 198 198 198 201 205 207 208 206 206 205 204 213 214 216 215 203 204 203 204 202 201 202 205
214 205 207 208 204 201 203 204 203 204 205 206 202 202 209 210 212 210 206 210 211 214 214 221 220 211 209 213 214 216 219 219
216 204 208 209 205 204 205 207 207 207 208 208 208 208 209 213 214 216 217 216 218 220 224 219 221 220 217 215 219 225 229 230
212 210 209 212 209 208 207 210 209 210 212 213 210 211 211 212 216 218 222 224 226 225 231 229 228 224 225 224 224 224 229 232
215 227 221 217 215 214 211 211 211 212 212 216 213 215 215 215 216 219 221 225 229 232 235 234 233 233 236 236 237 235 235 238
271 231 222 223 224 222 216 214 212 212 214 217 217 216 218 217 219 221 222 224 227 231 232 237 236 237 238 241 244 246 244 245